This demonstration page uses our WeatherBlox Daily Observations layout. Learn more.

Left ArrowRight Arrow

39.12711, -84.51439

Hourly Observations for September 15, 2022

Temp ( °F °C ) Dew Point ( °F °C ) Humidity (%) Winds ( mph kmh ) Pressure ( in mb ) Visibility ( mi km ) Precip ( " mm )
12:18 am 00:18 Clear with Mist and Fog 61 16.1 61 16.1 100 100 ENE 3 6 30.20 1023 2 3 0.00 0.00
12:26 am 00:26 Clear with Mist and Fog 61 16.1 61 16.1 100 100 Calm 30.20 1023 3 5 0.00 0.00
12:46 am 00:46 Clear with Mist and Fog 61 16.1 61 16.1 100 100 Calm 30.20 1023 3 4 0.00 0.00
12:53 am 00:53 Clear with Mist and Fog 61 16.1 60 15.6 97 97 Calm 30.19 1023 4 6 0.00 0.00
1:14 am 01:14 Clear with Mist and Fog 61 16.1 61 16.1 100 100 Calm 30.20 1023 3 4 0.00 0.00
1:22 am 01:22 Clear with Mist and Fog 60 15.6 59 15 96 96 Calm 30.20 1023 1 1 0.00 0.00
1:47 am 01:47 Clear with Mist and Fog 59 15 59 15 100 100 Calm 30.21 1023 2 3 0.00 0.00
1:53 am 01:53 Clear with Mist and Fog 59 15 59 15 100 100 Calm 30.20 1023 4 6 0.00 0.00
2:25 am 02:25 Clear with Mist and Fog 59 15 59 15 100 100 Calm 30.21 1023 1 2 0.00 0.00
2:29 am 02:29 Mostly Clear with Fog 57 13.9 57 13.9 100 100 Calm 30.22 1023 0 0 0.00 0.00
2:53 am 02:53 Cloudy with Mist and Fog 59 15 59 15 100 100 Calm 30.21 1023 2 2 0.00 0.00
3:06 am 03:06 Cloudy with Mist and Fog 60 15.6 60 15.6 100 100 Calm 30.22 1023 3 5 0.00 0.00
3:14 am 03:14 Cloudy with Mist and Fog 60 15.6 60 15.6 100 100 Calm 30.22 1023 2 3 0.00 0.00
3:21 am 03:21 Mostly Clear with Fog 60 15.6 60 15.6 100 100 Calm 30.22 1023 0 0 0.00 0.00
3:38 am 03:38 Mostly Clear with Fog 61 16.1 61 16.1 100 100 Calm 30.22 1023 0 0 0.00 0.00
3:53 am 03:53 Mostly Clear with Fog 61 16.1 61 16.1 100 100 Calm 30.21 1023 0 0 0.00 0.00
4:53 am 04:53 Mostly Clear with Fog 61 16.1 61 16.1 100 100 Calm 30.22 1023 0 0 0.00 0.00
5:44 am 05:44 Mostly Clear with Fog 61 16.1 61 16.1 100 100 Calm 30.23 1024 0 0 0.00 0.00
5:53 am 05:53 Mostly Clear with Fog 61 16.1 61 16.1 100 100 Calm 30.22 1024 0 0 0.00 0.00
6:53 am 06:53 Mostly Clear with Fog 60 15.6 60 15.6 100 100 Calm 30.24 1024 0 0 0.00 0.00
7:53 am 07:53 Partly Cloudy with Fog 60 15.6 60 15.6 100 100 Calm 30.26 1025 0 0 0.00 0.00
8:53 am 08:53 Partly Cloudy with Fog 60 15.6 60 15.6 100 100 Calm 30.27 1025 0 0 0.00 0.00
9:38 am 09:38 Partly Cloudy with Fog 61 16.1 61 16.1 100 100 Calm 30.28 1025 0 0 0.00 0.00
9:45 am 09:45 Cloudy with Mist and Fog 62 16.7 62 16.7 100 100 Calm 30.28 1025 1 2 0.00 0.00
10:14 am 10:14 Cloudy with Mist and Fog 64 17.8 64 17.8 100 100 Calm 30.27 1025 3 4 0.00 0.00
10:22 am 10:22 Sunny with Mist and Fog 65 18.3 64 17.8 97 97 Calm 30.27 1025 5 8 0.00 0.00
10:53 am 10:53 Sunny 70 21.1 65 18.3 84 84 Calm 30.27 1025 10 16 0.00 0.00
11:53 am 11:53 Mostly Sunny 75 23.9 64 17.8 69 69 Calm 30.26 1025 10 16 0.00 0.00
12:53 pm 12:53 Mostly Sunny 77 25 60 15.6 56 56 Calm 30.24 1024 10 16 0.00 0.00
1:53 pm 13:53 Mostly Sunny 80 26.7 61 16.1 52 52 Calm 30.22 1023 10 16 0.00 0.00
2:53 pm 14:53 Sunny 80 26.7 61 16.1 52 52 Calm 30.20 1023 10 16 0.00 0.00
3:53 pm 15:53 Sunny 82 27.8 60 15.6 47 47 ENE 3 6 30.18 1022 10 16 0.00 0.00
4:53 pm 16:53 Sunny 82 27.8 60 15.6 47 47 Calm 30.17 1022 9 14 0.00 0.00
5:53 pm 17:53 Sunny 81 27.2 61 16.1 51 51 Calm 30.16 1021 9 14 0.00 0.00
6:53 pm 18:53 Sunny 78 25.6 66 18.9 67 67 SE 3 6 30.17 1022 9 14 0.00 0.00
7:53 pm 19:53 Clear 70 21.1 66 18.9 87 87 Calm 30.18 1022 7 11 0.00 0.00
8:53 pm 20:53 Clear 67 19.4 65 18.3 93 93 Calm 30.19 1022 8 13 0.00 0.00
9:53 pm 21:53 Clear 65 18.3 64 17.8 97 97 Calm 30.19 1023 7 11 0.00 0.00
10:53 pm 22:53 Clear with Mist and Fog 64 17.8 63 17.2 96 96 Calm 30.19 1023 6 10 0.00 0.00
11:49 pm 23:49 Clear with Mist and Fog 63 17 63 17 100 100 Calm 30.20 1023 3 4 0.00 0.00
11:53 pm 23:53 Clear with Mist and Fog 63 17.2 63 17.2 100 100 Calm 30.20 1023 3 5 0.00 0.00

Powered by AerisWeather